| time (UTC) | temp F | wind direction | speed MPH | gust MPH | rain 1hr in | rain 24hr in | rain mn in | humidity % | barometer mb |
| 20260510030849 | 68 | 44 | 0.0 | 0.0 | 0.00 | 0.00 | 0.00 | 54 | 1012.0 |
| 20260510030346 | 68 | 46 | 0.0 | 0.0 | 0.00 | 0.00 | 0.00 | 54 | 1012.1 |
| 20260510025844 | 68 | 46 | 0.0 | 0.0 | 0.00 | 0.00 | 0.00 | 53 | 1011.9 |
| 20260510025341 | 68 | 48 | 0.0 | 0.0 | 0.00 | 0.00 | 0.00 | 52 | 1011.5 |
| 20260510024838 | 68 | 49 | 0.0 | 0.0 | 0.00 | 0.00 | 0.00 | 52 | 1011.6 |
| 20260510024334 | 68 | 49 | 0.0 | 0.0 | 0.00 | 0.00 | 0.00 | 52 | 1011.3 |
| 20260510023831 | 68 | 49 | 0.0 | 0.0 | 0.00 | 0.00 | 0.00 | 54 | 1011.2 |
| 20260510023327 | 68 | 49 | 0.0 | 0.0 | 0.00 | 0.00 | 0.00 | 53 | 1011.0 |
| 20260510022824 | 68 | 49 | 0.0 | 0.0 | 0.00 | 0.00 | 0.00 | 52 | 1010.7 |
| 20260510022323 | 69 | 49 | 0.0 | 0.0 | 0.00 | 0.00 | 0.00 | 51 | 1010.4 |
| 20260510021823 | 69 | 49 | 0.0 | 0.0 | 0.00 | 0.00 | 0.00 | 51 | 1010.5 |
| 20260510021321 | 69 | 49 | 0.0 | 0.0 | 0.00 | 0.00 | 0.00 | 51 | 1010.2 |
| 20260510020817 | 69 | 49 | 0.0 | 0.0 | 0.00 | 0.00 | 0.00 | 50 | 1010.1 |
| 20260510020312 | 70 | 49 | 0.0 | 0.0 | 0.00 | 0.00 | 0.00 | 49 | 1010.0 |
| 20260510015808 | 70 | 49 | 0.0 | 0.0 | 0.00 | 0.00 | 0.00 | 48 | 1009.7 |
| 20260510015306 | 70 | 48 | 0.0 | 0.0 | 0.00 | 0.00 | 0.00 | 48 | 1009.9 |
| 20260510014759 | 70 | 47 | 0.0 | 0.0 | 0.00 | 0.00 | 0.00 | 48 | 1009.9 |
| 20260510014256 | 71 | 48 | 0.0 | 0.0 | 0.00 | 0.00 | 0.00 | 47 | 1009.9 |
| 20260510013753 | 71 | 36 | 0.0 | 0.0 | 0.00 | 0.00 | 0.00 | 47 | 1009.7 |
| 20260510013248 | 71 | 18 | 0.0 | 2.0 | 0.00 | 0.00 | 0.00 | 47 | 1010.0 |
| 20260510012749 | 71 | 323 | 0.0 | 3.0 | 0.00 | 0.00 | 0.00 | 46 | 1009.8 |
| 20260510012243 | 71 | 336 | 1.0 | 2.0 | 0.00 | 0.00 | 0.00 | 47 | 1009.5 |
| 20260510011738 | 72 | 8 | 1.0 | 1.0 | 0.00 | 0.00 | 0.00 | 47 | 1009.5 |
| 20260510011233 | 72 | 33 | 0.0 | 1.0 | 0.00 | 0.00 | 0.00 | 46 | 1009.7 |
| 20260510010731 | 72 | 37 | 0.0 | 3.0 | 0.00 | 0.00 | 0.00 | 45 | 1009.3 |
| 20260510010227 | 73 | 335 | 0.0 | 2.0 | 0.00 | 0.00 | 0.00 | 45 | 1009.3 |
| 20260510005724 | 73 | 349 | 2.0 | 5.0 | 0.00 | 0.00 | 0.00 | 44 | 1008.9 |
| 20260510005221 | 73 | 342 | 3.0 | 3.0 | 0.00 | 0.00 | 0.00 | 44 | 1008.9 |
| 20260510004719 | 73 | 354 | 3.0 | 3.0 | 0.00 | 0.00 | 0.00 | 46 | 1009.0 |
| 20260510004216 | 73 | 309 | 2.0 | 3.0 | 0.00 | 0.00 | 0.00 | 46 | 1009.3 |
| 20260510003714 | 73 | 348 | 2.0 | 3.0 | 0.00 | 0.00 | 0.00 | 46 | 1008.9 |
| 20260510003209 | 73 | 10 | 0.0 | 0.0 | 0.00 | 0.00 | 0.00 | 46 | 1008.8 |
| 20260510002708 | 73 | 336 | 1.0 | 2.0 | 0.00 | 0.00 | 0.00 | 46 | 1008.9 |
| 20260510002206 | 73 | 314 | 0.0 | 1.0 | 0.00 | 0.00 | 0.00 | 46 | 1008.7 |
| 20260510001703 | 73 | 49 | 0.0 | 1.0 | 0.00 | 0.00 | 0.00 | 45 | 1008.5 |
| 20260510001201 | 73 | 23 | 0.0 | 3.0 | 0.00 | 0.00 | 0.00 | 45 | 1008.3 |
| 20260510000656 | 74 | 43 | 0.0 | 1.0 | 0.00 | 0.00 | 0.00 | 45 | 1008.5 |
| 20260510000154 | 74 | 43 | 0.0 | 3.0 | 0.00 | 0.00 | 0.00 | 45 | 1008.3 |
| 20260509235651 | 74 | 44 | 0.0 | 1.0 | 0.00 | 0.00 | 0.00 | 45 | 1008.3 |
| 20260509235147 | 74 | 359 | 0.0 | 2.0 | 0.00 | 0.00 | 0.00 | 45 | 1008.4 |
| 20260509234643 | 74 | 7 | 0.0 | 1.0 | 0.00 | 0.00 | 0.00 | 45 | 1008.5 |
| 20260509234140 | 75 | 14 | 1.0 | 3.0 | 0.00 | 0.00 | 0.00 | 44 | 1008.1 |
| 20260509233638 | 75 | 12 | 2.0 | 5.0 | 0.00 | 0.00 | 0.00 | 44 | 1008.2 |
| 20260509233135 | 75 | 28 | 0.0 | 3.0 | 0.00 | 0.00 | 0.00 | 44 | 1008.0 |
| 20260509232631 | 75 | 28 | 0.0 | 1.0 | 0.00 | 0.00 | 0.00 | 44 | 1008.1 |
| 20260509232128 | 75 | 43 | 0.0 | 0.0 | 0.00 | 0.00 | 0.00 | 44 | 1008.4 |
| 20260509231625 | 75 | 335 | 2.0 | 3.0 | 0.00 | 0.00 | 0.00 | 44 | 1008.4 |
| 20260509231123 | 75 | 0 | 2.0 | 3.0 | 0.00 | 0.00 | 0.00 | 43 | 1008.3 |
| 20260509230619 | 75 | 32 | 1.0 | 2.0 | 0.00 | 0.00 | 0.00 | 43 | 1008.6 |
| 20260509230117 | 75 | 41 | 0.0 | 1.0 | 0.00 | 0.00 | 0.00 | 42 | 1008.2 |
| 20260509225612 | 76 | 30 | 0.0 | 1.0 | 0.00 | 0.00 | 0.00 | 42 | 1008.4 |
| 20260509225108 | 76 | 351 | 0.0 | 1.0 | 0.00 | 0.00 | 0.00 | 41 | 1008.3 |
| 20260509224603 | 76 | 28 | 2.0 | 2.0 | 0.00 | 0.00 | 0.00 | 40 | 1008.2 |
| 20260509224101 | 77 | 27 | 1.0 | 1.0 | 0.00 | 0.00 | 0.00 | 39 | 1008.0 |
| 20260509223557 | 77 | 23 | 0.0 | 3.0 | 0.00 | 0.00 | 0.00 | 38 | 1008.4 |
| 20260509223055 | 79 | 293 | 4.0 | 8.0 | 0.00 | 0.00 | 0.00 | 35 | 1008.5 |
| 20260509222551 | 81 | 254 | 3.0 | 3.0 | 0.00 | 0.00 | 0.00 | 33 | 1007.5 |
| 20260509222047 | 81 | 228 | 0.0 | 1.0 | 0.00 | 0.00 | 0.00 | 32 | 1007.2 |
| 20260509221543 | 81 | 283 | 2.0 | 2.0 | 0.00 | 0.00 | 0.00 | 31 | 1007.3 |
| 20260509221039 | 82 | 225 | 2.0 | 2.0 | 0.00 | 0.00 | 0.00 | 30 | 1007.1 |
| 20260509220535 | 82 | 200 | 1.0 | 2.0 | 0.00 | 0.00 | 0.00 | 30 | 1007.0 |
| 20260509220031 | 82 | 216 | 1.0 | 2.0 | 0.00 | 0.00 | 0.00 | 30 | 1006.9 |
| 20260509215526 | 83 | 239 | 3.0 | 3.0 | 0.00 | 0.00 | 0.00 | 29 | 1006.9 |
| 20260509215024 | 83 | 277 | 3.0 | 5.0 | 0.00 | 0.00 | 0.00 | 28 | 1006.8 |
| 20260509214521 | 83 | 211 | 3.0 | 10.0 | 0.00 | 0.00 | 0.00 | 28 | 1006.6 |
| 20260509214018 | 83 | 209 | 2.0 | 6.0 | 0.00 | 0.00 | 0.00 | 29 | 1006.8 |
| 20260509213514 | 83 | 229 | 4.0 | 6.0 | 0.00 | 0.00 | 0.00 | 27 | 1006.8 |
| 20260509213011 | 84 | 221 | 5.0 | 7.0 | 0.00 | 0.00 | 0.00 | 26 | 1006.9 |
| 20260509212508 | 83 | 265 | 4.0 | 9.0 | 0.00 | 0.00 | 0.00 | 28 | 1006.6 |
| 20260509212005 | 83 | 244 | 2.0 | 5.0 | 0.00 | 0.00 | 0.00 | 29 | 1006.7 |
| 20260509211506 | 84 | 265 | 3.0 | 3.0 | 0.00 | 0.00 | 0.00 | 29 | 1006.9 |
| 20260509211003 | 84 | 215 | 3.0 | 6.0 | 0.00 | 0.00 | 0.00 | 28 | 1006.8 |
| 20260509210500 | 84 | 230 | 1.0 | 5.0 | 0.00 | 0.00 | 0.00 | 30 | 1006.9 |
| 20260509205955 | 84 | 234 | 3.0 | 7.0 | 0.00 | 0.00 | 0.00 | 30 | 1006.9 |
| 20260509205450 | 83 | 247 | 4.0 | 6.0 | 0.00 | 0.00 | 0.00 | 29 | 1007.2 |
| 20260509204946 | 83 | 260 | 3.0 | 6.0 | 0.00 | 0.00 | 0.00 | 30 | 1007.2 |
| 20260509204443 | 83 | 229 | 5.0 | 7.0 | 0.00 | 0.00 | 0.00 | 30 | 1007.2 |
| 20260509203939 | 84 | 244 | 5.0 | 6.0 | 0.00 | 0.00 | 0.00 | 32 | 1007.3 |
| 20260509203435 | 84 | 271 | 3.0 | 3.0 | 0.00 | 0.00 | 0.00 | 32 | 1007.3 |
| 20260509202933 | 83 | 5 | 0.0 | 2.0 | 0.00 | 0.00 | 0.00 | 32 | 1007.1 |
| 20260509202429 | 83 | 265 | 4.0 | 5.0 | 0.00 | 0.00 | 0.00 | 32 | 1007.2 |
| 20260509201924 | 83 | 294 | 2.0 | 3.0 | 0.00 | 0.00 | 0.00 | 33 | 1007.2 |
| 20260509201419 | 83 | 253 | 3.0 | 5.0 | 0.00 | 0.00 | 0.00 | 32 | 1007.4 |
| 20260509200916 | 83 | 284 | 2.0 | 5.0 | 0.00 | 0.00 | 0.00 | 32 | 1007.2 |
| 20260509200416 | 83 | 259 | 1.0 | 2.0 | 0.00 | 0.00 | 0.00 | 34 | 1007.3 |
| 20260509195913 | 82 | 223 | 2.0 | 2.0 | 0.00 | 0.00 | 0.00 | 33 | 1007.4 |
| 20260509195409 | 82 | 299 | 2.0 | 3.0 | 0.00 | 0.00 | 0.00 | 33 | 1007.5 |
| 20260509194908 | 82 | 262 | 3.0 | 5.0 | 0.00 | 0.00 | 0.00 | 33 | 1007.6 |
| 20260509194405 | 83 | 287 | 3.0 | 3.0 | 0.00 | 0.00 | 0.00 | 34 | 1007.5 |
| 20260509193901 | 82 | 0 | 1.0 | 3.0 | 0.00 | 0.00 | 0.00 | 36 | 1007.6 |
| 20260509193356 | 82 | 288 | 3.0 | 7.0 | 0.00 | 0.00 | 0.00 | 34 | 1007.8 |
| 20260509192852 | 82 | 274 | 1.0 | 2.0 | 0.00 | 0.00 | 0.00 | 34 | 1007.8 |
| 20260509192348 | 83 | 290 | 1.0 | 2.0 | 0.00 | 0.00 | 0.00 | 35 | 1007.9 |
| 20260509191844 | 82 | 252 | 0.0 | 1.0 | 0.00 | 0.00 | 0.00 | 35 | 1007.9 |
| 20260509191340 | 81 | 232 | 3.0 | 5.0 | 0.00 | 0.00 | 0.00 | 34 | 1008.0 |
| 20260509190836 | 82 | 282 | 3.0 | 5.0 | 0.00 | 0.00 | 0.00 | 35 | 1008.2 |
| 20260509190333 | 81 | 332 | 2.0 | 3.0 | 0.00 | 0.00 | 0.00 | 36 | 1008.2 |
| 20260509185830 | 81 | 247 | 2.0 | 5.0 | 0.00 | 0.00 | 0.00 | 35 | 1008.0 |
| 20260509185327 | 81 | 256 | 1.0 | 2.0 | 0.00 | 0.00 | 0.00 | 36 | 1008.1 |
| 20260509184824 | 81 | 246 | 2.0 | 2.0 | 0.00 | 0.00 | 0.00 | 38 | 1008.0 |
| 20260509184321 | 81 | 286 | 2.0 | 2.0 | 0.00 | 0.00 | 0.00 | 41 | 1008.0 |
| 20260509183817 | 81 | 229 | 0.0 | 0.0 | 0.00 | 0.00 | 0.00 | 40 | 1008.4 |
| 20260509183312 | 80 | 277 | 2.0 | 3.0 | 0.00 | 0.00 | 0.00 | 38 | 1008.3 |
| 20260509182809 | 80 | 128 | 0.0 | 3.0 | 0.00 | 0.00 | 0.00 | 40 | 1008.3 |
| 20260509182307 | 80 | 232 | 1.0 | 3.0 | 0.00 | 0.00 | 0.00 | 40 | 1008.2 |
| 20260509181803 | 79 | 255 | 1.0 | 2.0 | 0.00 | 0.00 | 0.00 | 40 | 1008.4 |
| 20260509181301 | 79 | 271 | 2.0 | 2.0 | 0.00 | 0.00 | 0.00 | 40 | 1008.4 |
| 20260509180758 | 79 | 214 | 3.0 | 3.0 | 0.00 | 0.00 | 0.00 | 39 | 1008.3 |
| 20260509180254 | 78 | 220 | 1.0 | 2.0 | 0.00 | 0.00 | 0.00 | 42 | 1008.3 |
| 20260509175750 | 78 | 219 | 1.0 | 3.0 | 0.00 | 0.00 | 0.00 | 42 | 1008.4 |
| 20260509175247 | 78 | 198 | 1.0 | 2.0 | 0.00 | 0.00 | 0.00 | 42 | 1008.4 |
| 20260509174743 | 78 | 143 | 1.0 | 3.0 | 0.00 | 0.00 | 0.00 | 40 | 1008.7 |
| 20260509174239 | 78 | 169 | 0.0 | 3.0 | 0.00 | 0.00 | 0.00 | 43 | 1008.5 |
| 20260509173735 | 78 | 303 | 1.0 | 3.0 | 0.00 | 0.00 | 0.00 | 42 | 1008.7 |
| 20260509173231 | 77 | 287 | 1.0 | 3.0 | 0.00 | 0.00 | 0.00 | 42 | 1008.8 |
| 20260509172727 | 77 | 133 | 2.0 | 3.0 | 0.00 | 0.00 | 0.00 | 42 | 1008.8 |
| 20260509172223 | 77 | 212 | 2.0 | 3.0 | 0.00 | 0.00 | 0.00 | 44 | 1009.0 |
| 20260509171719 | 76 | 160 | 1.0 | 1.0 | 0.00 | 0.00 | 0.00 | 45 | 1008.9 |
| 20260509171215 | 76 | 271 | 3.0 | 3.0 | 0.00 | 0.00 | 0.00 | 44 | 1009.0 |
| 20260509170712 | 76 | 190 | 3.0 | 5.0 | 0.00 | 0.00 | 0.00 | 45 | 1009.2 |
| 20260509170209 | 77 | 216 | 0.0 | 1.0 | 0.00 | 0.00 | 0.00 | 46 | 1009.2 |
| 20260509165707 | 77 | 79 | 0.0 | 1.0 | 0.00 | 0.00 | 0.00 | 45 | 1009.2 |
| 20260509165202 | 77 | 94 | 0.0 | 0.0 | 0.00 | 0.00 | 0.00 | 47 | 1008.8 |
| 20260509164658 | 76 | 57 | 0.0 | 1.0 | 0.00 | 0.00 | 0.00 | 48 | 1009.2 |
| 20260509164154 | 75 | 80 | 0.0 | 0.0 | 0.00 | 0.00 | 0.00 | 48 | 1009.2 |
| 20260509163652 | 74 | 234 | 1.0 | 2.0 | 0.00 | 0.00 | 0.00 | 48 | 1009.2 |
| 20260509163148 | 74 | 189 | 0.0 | 2.0 | 0.00 | 0.00 | 0.00 | 50 | 1009.0 |
| 20260509162645 | 74 | 159 | 0.0 | 0.0 | 0.00 | 0.00 | 0.00 | 49 | 1009.0 |
| 20260509162141 | 74 | 134 | 0.0 | 0.0 | 0.00 | 0.00 | 0.00 | 50 | 1009.2 |
| 20260509161637 | 74 | 126 | 0.0 | 1.0 | 0.00 | 0.00 | 0.00 | 54 | 1008.9 |
| 20260509161132 | 73 | 114 | 0.0 | 0.0 | 0.00 | 0.00 | 0.00 | 54 | 1008.8 |
| 20260509160629 | 71 | 168 | 1.0 | 1.0 | 0.00 | 0.00 | 0.00 | 53 | 1008.9 |
| 20260509160124 | 71 | 201 | 1.0 | 2.0 | 0.00 | 0.00 | 0.00 | 53 | 1008.9 |
| 20260509155621 | 71 | 112 | 0.0 | 1.0 | 0.00 | 0.00 | 0.00 | 56 | 1009.0 |
| 20260509155117 | 70 | 133 | 0.0 | 0.0 | 0.00 | 0.00 | 0.00 | 57 | 1008.8 |
| 20260509154612 | 70 | 117 | 0.0 | 1.0 | 0.00 | 0.00 | 0.00 | 56 | 1009.0 |
| 20260509154110 | 69 | 139 | 0.0 | 0.0 | 0.00 | 0.00 | 0.00 | 56 | 1009.2 |
| 20260509153607 | 69 | 161 | 1.0 | 2.0 | 0.00 | 0.00 | 0.00 | 58 | 1009.4 |
| 20260509153104 | 69 | 185 | 1.0 | 2.0 | 0.00 | 0.00 | 0.00 | 59 | 1009.2 |
| 20260509152600 | 68 | 203 | 1.0 | 2.0 | 0.00 | 0.00 | 0.00 | 60 | 1008.9 |
| 20260509152057 | 69 | 31 | 1.0 | 1.0 | 0.00 | 0.00 | 0.00 | 62 | 1009.2 |
| 20260509151553 | 69 | 148 | 0.0 | 0.0 | 0.00 | 0.00 | 0.00 | 62 | 1008.9 |
| 20260509151051 | 68 | 48 | 0.0 | 0.0 | 0.00 | 0.00 | 0.00 | 62 | 1009.2 |
| 20260509150548 | 67 | 117 | 0.0 | 0.0 | 0.00 | 0.00 | 0.00 | 63 | 1009.3 |
| 20260509150047 | 67 | 302 | 1.0 | 2.0 | 0.00 | 0.00 | 0.00 | 62 | 1008.9 |
| 20260509145542 | 66 | 291 | 1.0 | 1.0 | 0.00 | 0.00 | 0.00 | 64 | 1009.0 |
| 20260509145037 | 66 | 101 | 0.0 | 2.0 | 0.00 | 0.00 | 0.00 | 66 | 1008.9 |
| 20260509144534 | 66 | 346 | 0.0 | 1.0 | 0.00 | 0.00 | 0.00 | 66 | 1009.2 |
| 20260509144031 | 65 | 169 | 1.0 | 2.0 | 0.00 | 0.00 | 0.00 | 67 | 1009.0 |
| 20260509143529 | 65 | 102 | 0.0 | 0.0 | 0.00 | 0.00 | 0.00 | 67 | 1008.8 |
| 20260509143026 | 65 | 123 | 0.0 | 3.0 | 0.00 | 0.00 | 0.00 | 68 | 1008.8 |
| 20260509142521 | 65 | 134 | 0.0 | 0.0 | 0.00 | 0.00 | 0.00 | 67 | 1008.8 |
| 20260509142017 | 64 | 102 | 0.0 | 0.0 | 0.00 | 0.00 | 0.00 | 69 | 1008.9 |
| 20260509141514 | 64 | 158 | 0.0 | 0.0 | 0.00 | 0.00 | 0.00 | 70 | 1008.9 |
| 20260509141011 | 63 | 70 | 0.0 | 2.0 | 0.00 | 0.00 | 0.00 | 69 | 1009.0 |
| 20260509140507 | 63 | 35 | 0.0 | 1.0 | 0.00 | 0.00 | 0.00 | 70 | 1009.0 |
| 20260509140006 | 63 | 114 | 0.0 | 0.0 | 0.00 | 0.00 | 0.00 | 71 | 1008.8 |
| 20260509135502 | 62 | 214 | 1.0 | 1.0 | 0.00 | 0.00 | 0.00 | 72 | 1008.9 |
| 20260509134959 | 62 | 183 | 1.0 | 2.0 | 0.00 | 0.00 | 0.00 | 72 | 1009.0 |
| 20260509134457 | 61 | 181 | 0.0 | 2.0 | 0.00 | 0.00 | 0.00 | 73 | 1008.9 |
| 20260509133955 | 61 | 190 | 1.0 | 1.0 | 0.00 | 0.00 | 0.00 | 74 | 1008.8 |
| 20260509133451 | 60 | 133 | 1.0 | 3.0 | 0.00 | 0.00 | 0.00 | 77 | 1008.8 |
| 20260509132949 | 60 | 109 | 0.0 | 0.0 | 0.00 | 0.00 | 0.00 | 79 | 1008.8 |
| 20260509132447 | 59 | 107 | 0.0 | 0.0 | 0.00 | 0.00 | 0.00 | 80 | 1008.7 |
| 20260509131943 | 59 | 98 | 0.0 | 0.0 | 0.00 | 0.00 | 0.00 | 81 | 1009.0 |
| 20260509131441 | 59 | 70 | 0.0 | 0.0 | 0.00 | 0.00 | 0.00 | 79 | 1008.6 |
| 20260509130938 | 59 | 115 | 0.0 | 0.0 | 0.00 | 0.00 | 0.00 | 82 | 1008.7 |
| 20260509130433 | 58 | 103 | 0.0 | 0.0 | 0.00 | 0.00 | 0.00 | 84 | 1008.7 |
| 20260509125930 | 58 | 99 | 0.0 | 0.0 | 0.00 | 0.00 | 0.00 | 84 | 1008.7 |
| 20260509125427 | 58 | 163 | 1.0 | 1.0 | 0.00 | 0.00 | 0.00 | 83 | 1008.5 |
| 20260509124923 | 57 | 103 | 0.0 | 0.0 | 0.00 | 0.00 | 0.00 | 85 | 1008.4 |
| 20260509124420 | 57 | 95 | 0.0 | 0.0 | 0.00 | 0.00 | 0.00 | 86 | 1008.6 |
| 20260509123917 | 57 | 92 | 0.0 | 0.0 | 0.00 | 0.00 | 0.00 | 87 | 1008.3 |
| 20260509123414 | 56 | 94 | 0.0 | 0.0 | 0.00 | 0.00 | 0.00 | 89 | 1008.4 |
| 20260509122910 | 56 | 92 | 0.0 | 0.0 | 0.00 | 0.00 | 0.00 | 89 | 1008.5 |
| 20260509122407 | 56 | 92 | 0.0 | 0.0 | 0.00 | 0.00 | 0.00 | 91 | 1008.3 |
| 20260509121903 | 55 | 84 | 0.0 | 0.0 | 0.00 | 0.00 | 0.00 | 93 | 1008.5 |
| 20260509121401 | 55 | 81 | 0.0 | 0.0 | 0.00 | 0.00 | 0.00 | 94 | 1008.4 |
| 20260509120859 | 55 | 100 | 0.0 | 0.0 | 0.00 | 0.00 | 0.00 | 95 | 1008.2 |
| 20260509120356 | 54 | 81 | 0.0 | 0.0 | 0.00 | 0.00 | 0.00 | 97 | 1008.1 |
| 20260509115854 | 54 | 85 | 0.0 | 0.0 | 0.00 | 0.00 | 0.00 | 98 | 1008.2 |
| 20260509115351 | 53 | 75 | 0.0 | 0.0 | 0.00 | 0.00 | 0.00 | 99 | 1008.2 |
| 20260509114849 | 53 | 69 | 0.0 | 0.0 | 0.00 | 0.00 | 0.00 | 99 | 1008.0 |
| 20260509114347 | 52 | 71 | 0.0 | 0.0 | 0.00 | 0.00 | 0.00 | 99 | 1008.2 |
| 20260509113846 | 52 | 91 | 0.0 | 0.0 | 0.00 | 0.00 | 0.00 | 99 | 1008.0 |
| 20260509113343 | 52 | 89 | 0.0 | 0.0 | 0.00 | 0.00 | 0.00 | 99 | 1007.7 |
| 20260509112839 | 52 | 90 | 0.0 | 0.0 | 0.00 | 0.00 | 0.00 | 99 | 1008.1 |
| 20260509112337 | 52 | 90 | 0.0 | 0.0 | 0.00 | 0.00 | 0.00 | 99 | 1007.7 |
| 20260509111834 | 52 | 88 | 0.0 | 0.0 | 0.00 | 0.00 | 0.00 | 99 | 1007.7 |
| 20260509111331 | 52 | 87 | 0.0 | 0.0 | 0.00 | 0.00 | 0.00 | 99 | 1007.6 |
| 20260509110829 | 52 | 87 | 0.0 | 0.0 | 0.00 | 0.00 | 0.00 | 99 | 1007.6 |
| 20260509110324 | 53 | 94 | 0.0 | 0.0 | 0.00 | 0.00 | 0.00 | 99 | 1007.8 |
| 20260509105823 | 53 | 98 | 0.0 | 0.0 | 0.00 | 0.00 | 0.00 | 99 | 1007.7 |
| 20260509105321 | 53 | 63 | 0.0 | 0.0 | 0.00 | 0.00 | 0.00 | 99 | 1007.6 |
| 20260509104817 | 53 | 70 | 0.0 | 0.0 | 0.00 | 0.00 | 0.00 | 99 | 1007.7 |
| 20260509104314 | 53 | 71 | 0.0 | 0.0 | 0.00 | 0.00 | 0.00 | 99 | 1007.7 |
| 20260509103812 | 53 | 72 | 0.0 | 0.0 | 0.00 | 0.00 | 0.00 | 99 | 1007.7 |
| 20260509103309 | 53 | 71 | 0.0 | 0.0 | 0.00 | 0.00 | 0.00 | 99 | 1007.7 |
| 20260509102808 | 53 | 71 | 0.0 | 0.0 | 0.00 | 0.00 | 0.00 | 99 | 1007.7 |
| 20260509102306 | 53 | 72 | 0.0 | 0.0 | 0.00 | 0.00 | 0.00 | 99 | 1007.7 |
| 20260509101800 | 53 | 71 | 0.0 | 0.0 | 0.00 | 0.00 | 0.00 | 99 | 1007.6 |
| 20260509101256 | 53 | 71 | 0.0 | 0.0 | 0.00 | 0.00 | 0.00 | 99 | 1007.6 |
| 20260509100754 | 53 | 75 | 0.0 | 0.0 | 0.00 | 0.00 | 0.00 | 99 | 1007.7 |
| 20260509100251 | 54 | 75 | 0.0 | 0.0 | 0.00 | 0.00 | 0.00 | 99 | 1007.8 |
| 20260509095747 | 54 | 74 | 0.0 | 0.0 | 0.00 | 0.00 | 0.00 | 99 | 1007.6 |
| 20260509095246 | 54 | 79 | 0.0 | 0.0 | 0.00 | 0.00 | 0.00 | 99 | 1007.8 |
| 20260509094742 | 54 | 74 | 0.0 | 0.0 | 0.00 | 0.00 | 0.00 | 99 | 1007.6 |
| 20260509094239 | 54 | 75 | 0.0 | 0.0 | 0.00 | 0.00 | 0.00 | 99 | 1007.6 |
| 20260509093737 | 54 | 93 | 0.0 | 0.0 | 0.00 | 0.00 | 0.00 | 99 | 1007.8 |
| 20260509093234 | 54 | 92 | 0.0 | 0.0 | 0.00 | 0.00 | 0.00 | 99 | 1007.7 |
| 20260509092732 | 54 | 96 | 0.0 | 0.0 | 0.00 | 0.00 | 0.00 | 99 | 1007.7 |
| 20260509092230 | 54 | 101 | 0.0 | 0.0 | 0.00 | 0.00 | 0.00 | 99 | 1007.7 |
| 20260509091728 | 54 | 96 | 0.0 | 0.0 | 0.00 | 0.00 | 0.00 | 99 | 1007.7 |
| 20260509091223 | 54 | 96 | 0.0 | 0.0 | 0.00 | 0.00 | 0.00 | 99 | 1007.6 |
| 20260509090721 | 54 | 96 | 0.0 | 0.0 | 0.00 | 0.00 | 0.00 | 99 | 1007.5 |
| 20260509090218 | 54 | 96 | 0.0 | 0.0 | 0.00 | 0.00 | 0.00 | 99 | 1007.6 |
| 20260509085716 | 54 | 96 | 0.0 | 0.0 | 0.00 | 0.00 | 0.00 | 99 | 1007.3 |
| 20260509085213 | 54 | 96 | 0.0 | 0.0 | 0.00 | 0.00 | 0.00 | 99 | 1007.4 |
| 20260509084709 | 54 | 95 | 0.0 | 0.0 | 0.00 | 0.00 | 0.00 | 99 | 1007.7 |
| 20260509084207 | 54 | 95 | 0.0 | 0.0 | 0.00 | 0.00 | 0.00 | 99 | 1007.5 |
| 20260509083704 | 54 | 95 | 0.0 | 0.0 | 0.00 | 0.00 | 0.00 | 99 | 1007.5 |
| 20260509083200 | 54 | 95 | 0.0 | 0.0 | 0.00 | 0.00 | 0.00 | 99 | 1007.6 |
| 20260509082657 | 54 | 95 | 0.0 | 0.0 | 0.00 | 0.00 | 0.00 | 99 | 1007.5 |
| 20260509082154 | 54 | 95 | 0.0 | 0.0 | 0.00 | 0.00 | 0.00 | 99 | 1007.5 |
| 20260509081651 | 54 | 95 | 0.0 | 0.0 | 0.00 | 0.00 | 0.00 | 98 | 1007.4 |
| 20260509081148 | 54 | 95 | 0.0 | 0.0 | 0.00 | 0.00 | 0.00 | 98 | 1007.6 |
| 20260509080646 | 54 | 95 | 0.0 | 0.0 | 0.00 | 0.00 | 0.00 | 98 | 1007.6 |
| 20260509080144 | 55 | 95 | 0.0 | 0.0 | 0.00 | 0.00 | 0.00 | 98 | 1007.5 |
| 20260509075642 | 55 | 94 | 0.0 | 0.0 | 0.00 | 0.00 | 0.00 | 98 | 1007.5 |
| 20260509075139 | 55 | 94 | 0.0 | 0.0 | 0.00 | 0.00 | 0.00 | 98 | 1007.6 |
| 20260509074636 | 54 | 100 | 0.0 | 0.0 | 0.00 | 0.00 | 0.00 | 99 | 1007.5 |
| 20260509074132 | 55 | 100 | 0.0 | 0.0 | 0.00 | 0.00 | 0.00 | 99 | 1007.5 |
| 20260509073629 | 54 | 100 | 0.0 | 0.0 | 0.00 | 0.00 | 0.00 | 99 | 1007.5 |
| 20260509073125 | 54 | 100 | 0.0 | 0.0 | 0.00 | 0.00 | 0.00 | 99 | 1007.6 |
| 20260509072622 | 55 | 100 | 0.0 | 0.0 | 0.00 | 0.00 | 0.00 | 99 | 1007.4 |
| 20260509072119 | 55 | 100 | 0.0 | 0.0 | 0.00 | 0.00 | 0.00 | 99 | 1007.6 |
| 20260509071616 | 54 | 100 | 0.0 | 0.0 | 0.00 | 0.00 | 0.00 | 99 | 1007.6 |
| 20260509071113 | 54 | 100 | 0.0 | 0.0 | 0.00 | 0.00 | 0.00 | 99 | 1007.7 |
| 20260509070610 | 54 | 100 | 0.0 | 0.0 | 0.00 | 0.00 | 0.00 | 99 | 1007.7 |
| 20260509070106 | 55 | 100 | 0.0 | 0.0 | 0.00 | 0.00 | 0.00 | 99 | 1007.7 |
| 20260509065602 | 55 | 100 | 0.0 | 0.0 | 0.00 | 0.00 | 0.00 | 99 | 1007.6 |
| 20260509065058 | 55 | 100 | 0.0 | 0.0 | 0.00 | 0.00 | 0.00 | 99 | 1008.1 |
| 20260509064556 | 55 | 100 | 0.0 | 0.0 | 0.00 | 0.00 | 0.00 | 99 | 1008.1 |
| 20260509064054 | 55 | 100 | 0.0 | 0.0 | 0.00 | 0.00 | 0.00 | 99 | 1008.0 |
| 20260509063549 | 55 | 100 | 0.0 | 0.0 | 0.00 | 0.00 | 0.00 | 98 | 1008.2 |
| 20260509063047 | 55 | 100 | 0.0 | 0.0 | 0.00 | 0.00 | 0.00 | 98 | 1008.2 |
| 20260509062544 | 55 | 100 | 0.0 | 0.0 | 0.00 | 0.00 | 0.00 | 98 | 1008.1 |
| 20260509062041 | 55 | 100 | 0.0 | 0.0 | 0.00 | 0.00 | 0.00 | 98 | 1007.9 |
| 20260509061538 | 55 | 100 | 0.0 | 0.0 | 0.00 | 0.00 | 0.00 | 98 | 1008.4 |
| 20260509061035 | 55 | 100 | 0.0 | 0.0 | 0.00 | 0.00 | 0.00 | 98 | 1008.3 |
| 20260509060533 | 55 | 100 | 0.0 | 0.0 | 0.00 | 0.00 | 0.00 | 98 | 1008.1 |
| 20260509060023 | 55 | 99 | 0.0 | 0.0 | 0.00 | 0.00 | 0.00 | 98 | 1008.2 |
| 20260509055518 | 55 | 95 | 0.0 | 0.0 | 0.00 | 0.00 | 0.00 | 98 | 1008.1 |
| 20260509055015 | 55 | 94 | 0.0 | 0.0 | 0.00 | 0.00 | 0.00 | 98 | 1008.1 |
| 20260509054512 | 55 | 95 | 0.0 | 0.0 | 0.00 | 0.00 | 0.00 | 98 | 1008.2 |
| 20260509054010 | 55 | 95 | 0.0 | 0.0 | 0.00 | 0.00 | 0.00 | 98 | 1008.3 |
| 20260509053508 | 55 | 101 | 0.0 | 0.0 | 0.00 | 0.00 | 0.00 | 98 | 1008.1 |
| 20260509053005 | 55 | 96 | 0.0 | 0.0 | 0.00 | 0.00 | 0.00 | 99 | 1008.3 |
| 20260509052502 | 55 | 93 | 0.0 | 0.0 | 0.00 | 0.00 | 0.00 | 99 | 1008.2 |
| 20260509052000 | 55 | 90 | 0.0 | 0.0 | 0.00 | 0.00 | 0.00 | 99 | 1008.1 |
| 20260509051458 | 55 | 97 | 0.0 | 0.0 | 0.00 | 0.00 | 0.00 | 99 | 1008.1 |
| 20260509050954 | 55 | 90 | 0.0 | 0.0 | 0.00 | 0.00 | 0.00 | 99 | 1008.3 |
| 20260509050451 | 55 | 90 | 0.0 | 0.0 | 0.00 | 0.00 | 0.00 | 99 | 1008.3 |
| 20260509045948 | 55 | 90 | 0.0 | 0.0 | 0.00 | 0.13 | 0.13 | 99 | 1008.3 |
| 20260509045445 | 56 | 90 | 0.0 | 0.0 | 0.00 | 0.13 | 0.13 | 99 | 1008.2 |
| 20260509044942 | 56 | 90 | 0.0 | 0.0 | 0.00 | 0.13 | 0.13 | 99 | 1008.3 |
| 20260509044440 | 56 | 90 | 0.0 | 0.0 | 0.00 | 0.13 | 0.13 | 99 | 1008.2 |
| 20260509043937 | 56 | 90 | 0.0 | 0.0 | 0.00 | 0.13 | 0.13 | 99 | 1008.2 |
| 20260509043432 | 56 | 90 | 0.0 | 0.0 | 0.00 | 0.13 | 0.13 | 99 | 1008.1 |
| 20260509042928 | 56 | 90 | 0.0 | 0.0 | 0.00 | 0.13 | 0.13 | 99 | 1008.2 |
| 20260509042426 | 56 | 90 | 0.0 | 0.0 | 0.00 | 0.13 | 0.13 | 99 | 1008.4 |
| 20260509041922 | 56 | 90 | 0.0 | 0.0 | 0.00 | 0.13 | 0.13 | 99 | 1008.4 |
| 20260509041418 | 56 | 89 | 0.0 | 0.0 | 0.00 | 0.13 | 0.13 | 99 | 1008.5 |
| 20260509040917 | 56 | 89 | 0.0 | 0.0 | 0.00 | 0.13 | 0.13 | 99 | 1008.5 |
| 20260509040414 | 56 | 89 | 0.0 | 0.0 | 0.00 | 0.13 | 0.13 | 99 | 1008.4 |
| 20260509035911 | 56 | 89 | 0.0 | 0.0 | 0.00 | 0.13 | 0.13 | 99 | 1008.3 |
| 20260509035408 | 56 | 88 | 0.0 | 0.0 | 0.00 | 0.13 | 0.13 | 99 | 1008.5 |
| 20260509034904 | 56 | 89 | 0.0 | 0.0 | 0.00 | 0.13 | 0.13 | 99 | 1008.6 |
| 20260509034402 | 56 | 88 | 0.0 | 0.0 | 0.00 | 0.13 | 0.13 | 99 | 1008.5 |
| 20260509033859 | 57 | 89 | 0.0 | 0.0 | 0.00 | 0.13 | 0.13 | 99 | 1008.5 |
| 20260509033356 | 57 | 89 | 0.0 | 0.0 | 0.00 | 0.13 | 0.13 | 99 | 1008.7 |
| 20260509032852 | 57 | 88 | 0.0 | 0.0 | 0.00 | 0.13 | 0.13 | 99 | 1008.6 |
| 20260509032350 | 57 | 89 | 0.0 | 0.0 | 0.00 | 0.13 | 0.13 | 99 | 1008.4 |
| 20260509031848 | 56 | 85 | 0.0 | 0.0 | 0.00 | 0.13 | 0.13 | 99 | 1008.3 |
| 20260509031345 | 57 | 84 | 0.0 | 0.0 | 0.00 | 0.13 | 0.13 | 99 | 1008.4 |